Wetterdaten: Woche 15.09.08 - 21.09.08 (KW38)
Datum Zeit Temperatur Luftfeuchte Luftdruck Niederschlag Windrichtung Wind
15.09.2008 00:00 8,1 C 89 % 1018,8 hPa 0,0 l/m N-NO 3,2 km/h (1 Bft)
15.09.2008 01:00 7,9 C 83 % 1018,5 hPa 0,0 l/m N-NO 8,9 km/h (2 Bft)
15.09.2008 02:00 7,6 C 80 % 1018,3 hPa 0,0 l/m N-NO 13,7 km/h (3 Bft)
15.09.2008 03:00 7,3 C 80 % 1018,2 hPa 0,0 l/m N-NO 17,7 km/h (3 Bft)
15.09.2008 04:00 7,1 C 82 % 1017,9 hPa 0,0 l/m NO 17,7 km/h (3 Bft)
15.09.2008 05:00 6,8 C 84 % 1018,1 hPa 0,0 l/m NO 17,7 km/h (3 Bft)
15.09.2008 06:00 6,5 C 85 % 1018,0 hPa 0,0 l/m NO 19,3 km/h (3 Bft)
15.09.2008 07:00 6,1 C 85 % 1018,4 hPa 0,0 l/m N-NO 16,9 km/h (3 Bft)
15.09.2008 08:00 6,3 C 86 % 1018,8 hPa 0,0 l/m N-NO 16,1 km/h (3 Bft)
15.09.2008 09:00 6,8 C 87 % 1019,0 hPa 0,0 l/m NO 16,1 km/h (3 Bft)
15.09.2008 10:00 7,3 C 87 % 1019,1 hPa 0,0 l/m O-NO 15,3 km/h (3 Bft)
15.09.2008 11:00 7,9 C 83 % 1019,3 hPa 0,0 l/m NO 12,9 km/h (3 Bft)
15.09.2008 12:00 8,3 C 81 % 1019,5 hPa 0,0 l/m N-NO 14,5 km/h (3 Bft)
15.09.2008 13:00 8,4 C 77 % 1019,4 hPa 0,0 l/m NO 17,7 km/h (3 Bft)
15.09.2008 14:00 9,4 C 71 % 1019,3 hPa 0,0 l/m NO 12,9 km/h (3 Bft)
15.09.2008 15:00 9,0 C 72 % 1019,3 hPa 0,0 l/m N-NO 10,5 km/h (2 Bft)
15.09.2008 16:00 8,9 C 72 % 1019,3 hPa 0,0 l/m N-NO 8,1 km/h (2 Bft)
15.09.2008 17:00 8,9 C 76 % 1019,3 hPa 0,0 l/m N-NO 7,2 km/h (2 Bft)
15.09.2008 18:00 7,9 C 86 % 1019,6 hPa 0,6 l/m N-NO 12,9 km/h (3 Bft)
15.09.2008 19:00 7,0 C 93 % 1020,0 hPa 0,6 l/m N-NO 10,4 km/h (2 Bft)
15.09.2008 20:00 6,7 C 93 % 1020,4 hPa 0,2 l/m NO 7,2 km/h (2 Bft)
15.09.2008 21:00 6,5 C 93 % 1020,8 hPa 0,0 l/m N-NO 9,7 km/h (2 Bft)
15.09.2008 22:00 6,3 C 93 % 1020,7 hPa 0,0 l/m N-NO 8,0 km/h (2 Bft)
15.09.2008 23:00 6,1 C 94 % 1020,7 hPa 0,0 l/m N 8,1 km/h (2 Bft)
16.09.2008 00:00 6,3 C 94 % 1020,3 hPa 0,2 l/m N 5,6 km/h (1 Bft)
16.09.2008 01:00 6,3 C 95 % 1020,3 hPa 0,0 l/m N-NO 7,2 km/h (2 Bft)
16.09.2008 02:00 6,3 C 95 % 1020,0 hPa 0,0 l/m N 7,2 km/h (2 Bft)
16.09.2008 03:00 6,4 C 95 % 1019,7 hPa 0,0 l/m N-NO 8,9 km/h (2 Bft)
16.09.2008 04:00 6,6 C 95 % 1019,5 hPa 0,0 l/m N-NO 8,9 km/h (2 Bft)
16.09.2008 05:00 6,7 C 95 % 1019,7 hPa 0,0 l/m N 8,0 km/h (2 Bft)
16.09.2008 06:00 6,8 C 95 % 1019,8 hPa 0,0 l/m N-NO 10,5 km/h (2 Bft)
16.09.2008 07:00 6,8 C 95 % 1019,9 hPa 0,0 l/m N-NO 8,9 km/h (2 Bft)
16.09.2008 08:00 7,1 C 95 % 1020,0 hPa 0,0 l/m NO 8,9 km/h (2 Bft)
16.09.2008 09:00 7,6 C 92 % 1020,0 hPa 0,0 l/m NO 12,1 km/h (2 Bft)
16.09.2008 10:00 8,8 C 85 % 1020,3 hPa 0,0 l/m NO 16,1 km/h (3 Bft)
16.09.2008 11:00 9,4 C 78 % 1020,5 hPa 0,0 l/m O-NO 17,7 km/h (3 Bft)
16.09.2008 12:00 9,2 C 69 % 1020,5 hPa 0,0 l/m NO 23,3 km/h (4 Bft)
16.09.2008 13:00 9,6 C 63 % 1020,5 hPa 0,0 l/m O-NO 19,3 km/h (3 Bft)
16.09.2008 14:00 9,8 C 63 % 1020,5 hPa 0,0 l/m O-NO 18,5 km/h (3 Bft)
16.09.2008 15:00 9,9 C 63 % 1020,3 hPa 0,0 l/m O-SO 12,9 km/h (3 Bft)
16.09.2008 16:00 10,3 C 62 % 1020,0 hPa 0,0 l/m O-SO 13,7 km/h (3 Bft)
16.09.2008 17:00 10,1 C 63 % 1020,3 hPa 0,0 l/m O-NO 8,1 km/h (2 Bft)
16.09.2008 18:00 9,9 C 64 % 1020,0 hPa 0,0 l/m N 6,4 km/h (2 Bft)
16.09.2008 19:00 9,6 C 69 % 1020,3 hPa 0,0 l/m N 2,4 km/h (1 Bft)
16.09.2008 20:00 8,9 C 79 % 1020,7 hPa 0,0 l/m N 2,4 km/h (1 Bft)
16.09.2008 21:00 8,2 C 82 % 1020,7 hPa 0,0 l/m NO 4,8 km/h (1 Bft)
16.09.2008 22:00 7,4 C 84 % 1020,5 hPa 0,0 l/m N-NW 6,4 km/h (2 Bft)
16.09.2008 23:00 6,4 C 88 % 1020,5 hPa 0,0 l/m N 0,0 km/h (0 Bft)
17.09.2008 00:00 5,8 C 91 % 1020,6 hPa 0,0 l/m N-NW 3,2 km/h (1 Bft)
17.09.2008 01:00 5,3 C 92 % 1020,5 hPa 0,0 l/m N-NO 7,2 km/h (2 Bft)
17.09.2008 02:00 5,3 C 96 % 1020,5 hPa 0,0 l/m NO 5,6 km/h (1 Bft)
17.09.2008 03:00 6,2 C 95 % 1020,3 hPa 0,0 l/m N-NO 9,6 km/h (2 Bft)
17.09.2008 04:00 6,4 C 92 % 1020,3 hPa 0,0 l/m N-NO 11,3 km/h (2 Bft)
17.09.2008 05:00 6,1 C 91 % 1020,3 hPa 0,0 l/m N-NO 8,9 km/h (2 Bft)
17.09.2008 06:00 5,6 C 91 % 1020,1 hPa 0,0 l/m NO 10,5 km/h (2 Bft)
17.09.2008 07:00 5,8 C 88 % 1020,3 hPa 0,0 l/m O-NO 16,9 km/h (3 Bft)
17.09.2008 08:00 5,7 C 85 % 1020,5 hPa 0,0 l/m O 16,9 km/h (3 Bft)
17.09.2008 09:00 6,3 C 84 % 1020,7 hPa 0,0 l/m O-NO 13,7 km/h (3 Bft)
17.09.2008 10:00 7,3 C 80 % 1020,8 hPa 0,0 l/m O-SO 14,5 km/h (3 Bft)
17.09.2008 11:00 8,1 C 75 % 1020,9 hPa 0,0 l/m O 18,5 km/h (3 Bft)
17.09.2008 12:00 8,4 C 73 % 1020,8 hPa 0,0 l/m O-NO 19,3 km/h (3 Bft)
17.09.2008 13:00 9,3 C 70 % 1020,6 hPa 0,0 l/m NO 18,5 km/h (3 Bft)
17.09.2008 14:00 10,1 C 65 % 1020,4 hPa 0,0 l/m NO 20,1 km/h (4 Bft)
17.09.2008 15:00 10,1 C 66 % 1020,3 hPa 0,0 l/m O-NO 20,9 km/h (4 Bft)
17.09.2008 16:00 10,2 C 67 % 1020,1 hPa 0,0 l/m NO 18,5 km/h (3 Bft)
17.09.2008 17:00 10,0 C 67 % 1020,2 hPa 0,0 l/m NO 20,1 km/h (4 Bft)
17.09.2008 18:00 9,5 C 68 % 1020,2 hPa 0,0 l/m NO 16,9 km/h (3 Bft)
17.09.2008 19:00 8,8 C 72 % 1020,5 hPa 0,0 l/m NO 15,3 km/h (3 Bft)
17.09.2008 20:00 7,6 C 77 % 1020,8 hPa 0,0 l/m N-NO 9,7 km/h (2 Bft)
17.09.2008 21:00 6,8 C 80 % 1021,2 hPa 0,0 l/m N-NO 10,5 km/h (2 Bft)
17.09.2008 22:00 6,2 C 82 % 1021,5 hPa 0,0 l/m N-NO 8,9 km/h (2 Bft)
17.09.2008 23:00 5,5 C 84 % 1021,6 hPa 0,0 l/m N 8,0 km/h (2 Bft)
18.09.2008 00:00 4,8 C 86 % 1021,5 hPa 0,0 l/m N-NO 7,2 km/h (2 Bft)
18.09.2008 01:00 4,1 C 88 % 1021,5 hPa 0,0 l/m N-NW 8,9 km/h (2 Bft)
18.09.2008 02:00 3,6 C 90 % 1021,3 hPa 0,0 l/m N-NW 7,2 km/h (2 Bft)
18.09.2008 03:00 3,3 C 91 % 1021,0 hPa 0,0 l/m N-NW 5,6 km/h (1 Bft)
18.09.2008 04:00 2,8 C 91 % 1021,0 hPa 0,0 l/m N-NW 6,4 km/h (2 Bft)
18.09.2008 05:00 2,7 C 93 % 1021,2 hPa 0,0 l/m N-NW 4,8 km/h (1 Bft)
18.09.2008 06:00 2,5 C 93 % 1021,5 hPa 0,0 l/m N-NW 5,6 km/h (1 Bft)
18.09.2008 07:00 2,2 C 94 % 1021,8 hPa 0,0 l/m N-NO 6,4 km/h (2 Bft)
18.09.2008 08:00 3,0 C 94 % 1022,2 hPa 0,0 l/m N-NO 8,0 km/h (2 Bft)
18.09.2008 09:00 4,3 C 91 % 1022,1 hPa 0,0 l/m NO 7,2 km/h (2 Bft)
18.09.2008 10:00 6,4 C 86 % 1022,1 hPa 0,0 l/m N-NO 6,4 km/h (2 Bft)
18.09.2008 11:00 9,0 C 79 % 1022,2 hPa 0,0 l/m NO 9,7 km/h (2 Bft)
18.09.2008 12:00 11,1 C 76 % 1021,7 hPa 0,0 l/m NO 11,3 km/h (2 Bft)
18.09.2008 13:00 12,3 C 71 % 1021,2 hPa 0,0 l/m O-NO 11,3 km/h (2 Bft)
18.09.2008 14:00 13,1 C 68 % 1020,8 hPa 0,0 l/m NO 10,5 km/h (2 Bft)
18.09.2008 15:00 13,8 C 66 % 1020,5 hPa 0,0 l/m O-NO 11,3 km/h (2 Bft)
18.09.2008 16:00 13,3 C 67 % 1020,3 hPa 0,0 l/m O-NO 15,3 km/h (3 Bft)
18.09.2008 17:00 13,0 C 69 % 1020,5 hPa 0,0 l/m O-NO 10,5 km/h (2 Bft)
18.09.2008 18:00 12,5 C 72 % 1021,0 hPa 0,0 l/m N-NO 9,6 km/h (2 Bft)
18.09.2008 19:00 11,7 C 74 % 1021,3 hPa 0,0 l/m O-NO 6,4 km/h (2 Bft)
18.09.2008 20:00 11,1 C 77 % 1021,6 hPa 0,0 l/m O-SO 6,4 km/h (2 Bft)
18.09.2008 21:00 10,4 C 79 % 1021,7 hPa 0,0 l/m N-NO 6,4 km/h (2 Bft)
18.09.2008 22:00 9,8 C 81 % 1021,6 hPa 0,0 l/m NO 8,0 km/h (2 Bft)
18.09.2008 23:00 9,6 C 77 % 1021,0 hPa 0,0 l/m O-NO 13,7 km/h (3 Bft)
19.09.2008 00:00 9,2 C 82 % 1020,9 hPa 0,0 l/m NO 7,3 km/h (2 Bft)
19.09.2008 01:00 8,7 C 84 % 1020,4 hPa 0,0 l/m N 8,1 km/h (2 Bft)
19.09.2008 02:00 8,1 C 86 % 1020,4 hPa 0,0 l/m N-NW 7,2 km/h (2 Bft)
19.09.2008 03:00 7,4 C 89 % 1020,3 hPa 0,0 l/m N-NW 6,4 km/h (2 Bft)
19.09.2008 04:00 7,5 C 88 % 1020,1 hPa 0,0 l/m N-NO 7,2 km/h (2 Bft)
19.09.2008 05:00 7,4 C 86 % 1020,0 hPa 0,0 l/m N 6,4 km/h (2 Bft)
19.09.2008 06:00 7,1 C 87 % 1020,2 hPa 0,0 l/m N-NO 7,2 km/h (2 Bft)
19.09.2008 07:00 6,6 C 87 % 1020,5 hPa 0,0 l/m N 5,6 km/h (1 Bft)
19.09.2008 08:00 6,2 C 88 % 1021,1 hPa 0,0 l/m N-NO 11,3 km/h (2 Bft)
19.09.2008 09:00 6,7 C 87 % 1021,3 hPa 0,0 l/m NO 10,4 km/h (2 Bft)
19.09.2008 10:00 7,9 C 83 % 1021,6 hPa 0,0 l/m N-NO 8,9 km/h (2 Bft)
19.09.2008 11:00 9,6 C 80 % 1022,0 hPa 0,0 l/m NO 8,1 km/h (2 Bft)
19.09.2008 12:00 11,0 C 77 % 1022,0 hPa 0,0 l/m NO 9,6 km/h (2 Bft)
19.09.2008 13:00 12,4 C 74 % 1022,0 hPa 0,0 l/m SO 5,6 km/h (1 Bft)
19.09.2008 14:00 13,4 C 75 % 1022,0 hPa 0,0 l/m NO 6,4 km/h (2 Bft)
19.09.2008 15:00 13,9 C 73 % 1022,0 hPa 0,0 l/m N-NO 4,8 km/h (1 Bft)
19.09.2008 16:00 14,6 C 69 % 1022,0 hPa 0,0 l/m NO 8,0 km/h (2 Bft)
19.09.2008 17:00 14,8 C 66 % 1022,5 hPa 0,0 l/m O-NO 12,9 km/h (3 Bft)
19.09.2008 18:00 14,3 C 63 % 1022,8 hPa 0,0 l/m O-NO 10,5 km/h (2 Bft)
19.09.2008 19:00 12,9 C 69 % 1023,3 hPa 0,0 l/m O 3,2 km/h (1 Bft)
19.09.2008 20:00 11,1 C 76 % 1024,0 hPa 0,0 l/m N 5,2 km/h (1 Bft)
19.09.2008 21:00 9,7 C 80 % 1024,4 hPa 0,0 l/m N-NO 1,3 km/h (1 Bft)
19.09.2008 22:00 8,4 C 83 % 1024,6 hPa 0,0 l/m N 1,7 km/h (1 Bft)
19.09.2008 23:00 7,5 C 85 % 1024,9 hPa 0,0 l/m N 3,5 km/h (1 Bft)
20.09.2008 00:00 6,8 C 85 % 1025,1 hPa 0,0 l/m N-NW 4,3 km/h (1 Bft)
20.09.2008 01:00 6,2 C 86 % 1025,3 hPa 0,0 l/m N-NW 6,7 km/h (2 Bft)
20.09.2008 02:00 5,6 C 87 % 1025,8 hPa 0,0 l/m NW 4,3 km/h (1 Bft)
20.09.2008 03:00 5,0 C 88 % 1025,9 hPa 0,0 l/m N-NW 5,2 km/h (1 Bft)
20.09.2008 04:00 4,4 C 89 % 1025,9 hPa 0,0 l/m N-NW 5,5 km/h (1 Bft)
20.09.2008 05:00 4,0 C 90 % 1026,1 hPa 0,0 l/m N 8,4 km/h (2 Bft)
20.09.2008 06:00 3,7 C 89 % 1026,3 hPa 0,0 l/m N 5,2 km/h (1 Bft)
20.09.2008 07:00 3,3 C 90 % 1026,9 hPa 0,0 l/m N-NO 4,5 km/h (1 Bft)
20.09.2008 08:00 4,0 C 90 % 1027,4 hPa 0,0 l/m N-NO 9,8 km/h (2 Bft)
20.09.2008 09:00 6,1 C 85 % 1027,5 hPa 0,0 l/m O-NO 12,5 km/h (3 Bft)
20.09.2008 10:00 9,0 C 72 % 1027,7 hPa 0,0 l/m O-NO 16,6 km/h (3 Bft)
20.09.2008 11:00 10,9 C 61 % 1027,5 hPa 0,0 l/m NO 20,5 km/h (4 Bft)
20.09.2008 12:00 11,8 C 53 % 1027,4 hPa 0,0 l/m NO 22,5 km/h (4 Bft)
20.09.2008 13:00 12,0 C 53 % 1027,0 hPa 0,0 l/m O-NO 22,2 km/h (4 Bft)
20.09.2008 14:00 12,5 C 51 % 1026,5 hPa 0,0 l/m NO 21,2 km/h (4 Bft)
20.09.2008 15:00 12,5 C 50 % 1026,4 hPa 0,0 l/m O-NO 22,6 km/h (4 Bft)
20.09.2008 16:00 12,1 C 52 % 1026,3 hPa 0,0 l/m NO 22,6 km/h (4 Bft)
20.09.2008 17:00 11,4 C 55 % 1026,4 hPa 0,0 l/m O-NO 23,2 km/h (4 Bft)
20.09.2008 18:00 10,4 C 59 % 1026,5 hPa 0,0 l/m NO 19,0 km/h (3 Bft)
20.09.2008 19:00 8,9 C 66 % 1026,7 hPa 0,0 l/m O-NO 12,8 km/h (3 Bft)
20.09.2008 20:00 7,8 C 71 % 1026,7 hPa 0,0 l/m NO 10,8 km/h (2 Bft)
20.09.2008 21:00 7,1 C 75 % 1026,8 hPa 0,0 l/m NO 9,7 km/h (2 Bft)
20.09.2008 22:00 6,5 C 76 % 1026,7 hPa 0,0 l/m NO 9,0 km/h (2 Bft)
20.09.2008 23:00 6,1 C 79 % 1026,1 hPa 0,0 l/m NO 7,6 km/h (2 Bft)
21.09.2008 00:00 5,7 C 82 % 1025,7 hPa 0,0 l/m NO 8,9 km/h (2 Bft)
21.09.2008 01:00 5,7 C 82 % 1025,1 hPa 0,0 l/m O-NO 13,6 km/h (3 Bft)
21.09.2008 02:00 5,6 C 83 % 1024,4 hPa 0,0 l/m O-NO 14,0 km/h (3 Bft)
21.09.2008 03:00 5,3 C 85 % 1024,0 hPa 0,0 l/m O-NO 14,6 km/h (3 Bft)
21.09.2008 04:00 5,0 C 85 % 1023,6 hPa 0,0 l/m NO 12,8 km/h (3 Bft)
21.09.2008 05:00 4,6 C 86 % 1023,1 hPa 0,0 l/m N-NO 8,6 km/h (2 Bft)
21.09.2008 06:00 4,7 C 88 % 1022,8 hPa 0,0 l/m N-NO 9,7 km/h (2 Bft)
21.09.2008 07:00 5,2 C 87 % 1023,0 hPa 0,0 l/m N-NO 13,0 km/h (3 Bft)
21.09.2008 08:00 5,6 C 87 % 1023,1 hPa 0,0 l/m O-NO 10,5 km/h (2 Bft)
21.09.2008 09:00 6,5 C 86 % 1023,0 hPa 0,0 l/m NO 13,7 km/h (3 Bft)
21.09.2008 10:00 7,7 C 82 % 1022,6 hPa 0,0 l/m O-NO 14,8 km/h (3 Bft)
21.09.2008 11:00 9,8 C 70 % 1022,2 hPa 0,0 l/m O 18,8 km/h (3 Bft)
21.09.2008 12:00 11,8 C 57 % 1021,6 hPa 0,0 l/m O 22,0 km/h (4 Bft)
21.09.2008 13:00 12,6 C 54 % 1020,8 hPa 0,0 l/m NO 20,9 km/h (4 Bft)
21.09.2008 14:00 13,1 C 51 % 1020,3 hPa 0,0 l/m NO 20,5 km/h (4 Bft)
21.09.2008 15:00 12,9 C 53 % 1019,8 hPa 0,0 l/m O-NO 18,8 km/h (3 Bft)
21.09.2008 16:00 12,6 C 58 % 1019,7 hPa 0,0 l/m O-NO 19,2 km/h (3 Bft)
21.09.2008 17:00 12,0 C 61 % 1019,9 hPa 0,0 l/m NO 16,6 km/h (3 Bft)
21.09.2008 18:00 11,3 C 65 % 1020,0 hPa 0,0 l/m N-NO 11,7 km/h (2 Bft)
21.09.2008 19:00 9,4 C 76 % 1019,8 hPa 0,0 l/m N-NO 4,3 km/h (1 Bft)
21.09.2008 20:00 7,8 C 85 % 1019,6 hPa 0,0 l/m N 4,1 km/h (1 Bft)
21.09.2008 21:00 7,2 C 88 % 1019,8 hPa 0,0 l/m N-NW 5,6 km/h (1 Bft)
21.09.2008 22:00 6,2 C 91 % 1019,5 hPa 0,0 l/m N-NW 2,5 km/h (1 Bft)
21.09.2008 23:00 5,4 C 93 % 1019,3 hPa 0,0 l/m NW 3,7 km/h (1 Bft)
Min-Datum _ 18.09.08 21.09.08 15.09.08 - - 15.09.08
_ Min-Zeit 07:30 14:40 04:00 - - 00:00
Minimum _ 2,2 C 48 % 1017,9 hPa - - 0,0 km/h (0 Bft)
Max-Datum _ 19.09.08 17.09.08 20.09.08 15.09.08 - 21.09.08
_ Max-Zeit 16:30 02:30 10:00 18:30 - 12:20
Maximum _ 14,8 C 96 % 1027,7 hPa 0,6 l/m - 29,0 km/h
NO (5 Bft)
Durchschnitt _ 8,1 C 79 % 1021,6 hPa #1,6 l/m NO 11,0 km/h (2 Bft)